Flag for Ecuador Weather past 2 weeks in Guayaquil, Ecuador

Now
79 °F

Scattered showers. Mostly cloudy.


Feels Like: 81 °F
Forecast: N/A
Wind: 7 mph from Southwest

Location: Guayaquil / Simon Bolivar

Current Time: Jul 31, 2015 at 5:16:08 PM

Latest Report: Jul 31, 2015 at 5:00 PM


Visibility: N/A

Pressure: 29.80 "Hg

Humidity: 74%

Dew point: 70 °F

Location of GuayaquilLocation

Historic Weather in Guayaquil — Graph

°F

Guayaquil temperature yesterday

Maximum temperature yesterday: 90 °F (at 3:00 PM)
Minimum temperature yesterday: 73 °F (at 7:00 AM)
Average temperature yesterday: 79 °F

Past Weeks' High & Low Weather Summary

 TemperatureHumidityPressure
High90 °F (Jul 17, 4:00 PM)89% (Jul 18, 10:00 PM)29.95 "Hg (Jul 18, 10:00 PM)
Low72 °F (Jul 29, 3:00 AM)55% (Jul 17, 4:00 PM)29.68 "Hg (Jul 25, 4:00 PM)
Average79 °F74%29.84 "Hg
* Reported Jul 16 4:00 PM — Jul 31 4:00 PM, Guayaquil, Weather by CustomWeather, © 2015

Note: Actual official high and low records may vary slightly from our data, if they occured in-between our weather recording intervals... More about our weather records

Advertising

Guayaquil weather history for previous 24 hours

 ConditionsComfort  
Time TempWeatherWind HumidityBarometerVisibility
4:00 PM
Fri, Jul 31
81 °FScattered showers. More clouds than sun.9 mph70%29.80 "HgN/A
3:00 PM81 °FPartly sunny.8 mph70%29.80 "HgN/A
2:00 PM81 °FPartly sunny.8 mph70%29.83 "HgN/A
1:00 PM81 °FPartly sunny.10 mph70%29.83 "HgN/A
12:00 PM81 °FPartly sunny.9 mph70%29.86 "HgN/A
11:00 AM81 °FBroken clouds.7 mph70%29.89 "HgN/A
10:00 AM79 °FMore clouds than sun.10 mph74%29.89 "HgN/A
9:00 AM77 °FMore clouds than sun.10 mph79%29.89 "HgN/A
8:00 AM75 °FPartly sunny.8 mph83%29.89 "HgN/A
7:00 AM75 °FPartly sunny.8 mph83%29.89 "HgN/A
6:00 AM75 °FPassing clouds.6 mph83%29.86 "HgN/A
5:00 AM75 °FPartly cloudy.6 mph83%29.86 "HgN/A
4:00 AM75 °FPassing clouds.9 mph83%29.86 "HgN/A
3:00 AM75 °FPassing clouds.8 mph78%29.86 "HgN/A
2:00 AM75 °FPassing clouds.9 mph78%29.89 "HgN/A
1:00 AM75 °FPassing clouds.13 mph78%29.92 "HgN/A
12:00 AM75 °FPassing clouds.13 mph78%29.92 "HgN/A
11:00 PM
Thu, Jul 30
75 °FPassing clouds.14 mph78%29.92 "HgN/A
10:00 PM77 °FPassing clouds.13 mph74%29.89 "HgN/A
9:00 PM77 °FPassing clouds.15 mph74%29.89 "HgN/A
8:00 PM77 °FPassing clouds.17 mph74%29.86 "HgN/A
7:00 PM79 °FPassing clouds.17 mph70%29.83 "HgN/A
6:00 PM82 °FPartly sunny.17 mph66%29.80 "HgN/A
5:00 PM84 °FScattered showers. Broken clouds.16 mph62%29.80 "HgN/A
Weather by CustomWeather, © 2015

See weather overviewHow to use our weather pages